TimeCDT,TemperatureF,Dew PointF,Humidity,Sea Level PressureIn,VisibilityMPH,Wind Direction,Wind SpeedMPH,Gust SpeedMPH,PrecipitationIn,Events,Conditions,WindDirDegrees,DateUTC
12:52 AM,84.9,66.0,53,29.88,10.0,SSE,10.4,-,N/A,,Clear,160,2013-07-12 05:52:00
1:52 AM,81.0,66.0,60,29.88,10.0,SE,4.6,-,N/A,,Clear,130,2013-07-12 06:52:00
2:52 AM,80.1,66.0,62,29.88,10.0,ESE,5.8,-,N/A,,Clear,110,2013-07-12 07:52:00
3:52 AM,78.1,66.0,66,29.88,10.0,SE,3.5,-,N/A,,Clear,130,2013-07-12 08:52:00
4:52 AM,75.9,66.9,74,29.88,10.0,ESE,5.8,-,N/A,,Scattered Clouds,110,2013-07-12 09:52:00
5:52 AM,73.9,66.9,79,29.88,10.0,East,4.6,-,N/A,,Scattered Clouds,100,2013-07-12 10:52:00
6:52 AM,73.9,66.9,79,29.89,10.0,ESE,8.1,-,N/A,,Partly Cloudy,110,2013-07-12 11:52:00
7:52 AM,78.1,68.0,71,29.91,10.0,SE,9.2,-,N/A,,Clear,130,2013-07-12 12:52:00
8:52 AM,82.0,68.0,62,29.91,10.0,SSE,9.2,-,N/A,,Partly Cloudy,160,2013-07-12 13:52:00
9:52 AM,88.0,68.0,51,29.91,10.0,South,10.4,-,N/A,,Clear,180,2013-07-12 14:52:00
10:52 AM,93.0,64.9,39,29.91,10.0,SSE,6.9,-,N/A,,Clear,160,2013-07-12 15:52:00
11:52 AM,96.1,63.0,33,29.91,10.0,South,5.8,-,N/A,,Clear,190,2013-07-12 16:52:00
12:52 PM,97.0,60.1,29,29.89,10.0,Variable,4.6,-,N/A,,Partly Cloudy,0,2013-07-12 17:52:00
1:52 PM,100.0,60.1,27,29.88,10.0,SE,8.1,-,N/A,,Scattered Clouds,140,2013-07-12 18:52:00
2:52 PM,100.9,59.0,25,29.86,10.0,South,5.8,21.9,N/A,,Scattered Clouds,190,2013-07-12 19:52:00
3:45 PM,102.2,60.8,26,29.90,10.0,SE,10.4,21.9,N/A,,Scattered Clouds,140,2013-07-12 20:45:00
3:52 PM,102.0,60.1,25,29.85,10.0,SSE,11.5,-,N/A,,Partly Cloudy,150,2013-07-12 20:52:00
4:52 PM,100.0,57.9,25,29.84,10.0,SSE,12.7,20.7,N/A,,Scattered Clouds,150,2013-07-12 21:52:00
5:52 PM,102.0,57.0,22,29.83,10.0,SE,11.5,-,N/A,,Scattered Clouds,130,2013-07-12 22:52:00
6:52 PM,100.9,57.9,24,29.82,10.0,SE,9.2,17.3,N/A,,Partly Cloudy,140,2013-07-12 23:52:00
7:52 PM,98.1,60.1,28,29.83,10.0,SE,17.3,-,N/A,,Clear,140,2013-07-13 00:52:00
8:52 PM,95.0,62.1,33,29.84,10.0,SE,11.5,-,N/A,,Clear,130,2013-07-13 01:52:00
9:52 PM,91.9,62.1,37,29.84,10.0,SE,11.5,-,N/A,,Clear,130,2013-07-13 02:52:00
10:52 PM,89.1,62.1,40,29.86,10.0,ESE,10.4,-,N/A,,Clear,120,2013-07-13 03:52:00
11:52 PM,87.1,62.1,43,29.88,10.0,SE,10.4,-,N/A,,Clear,130,2013-07-13 04:52:00